Flag for China Weather past 2 weeks in Shantou, Guangdong, China

Now
79 °F

Passing clouds.


Feels Like: 82 °F
Forecast: 79 / 92 °F
Wind: 1 mph from North

Location: Shantou Airport

Current Time: Jul 6, 2015 at 6:14:06 AM

Latest Report: Jul 6, 2015 at 5:00 AM


Visibility: N/A

Pressure: 29.56 "Hg

Humidity: 89%

Dew point: 75 °F

Location of ShantouLocation

Historic Weather in Shantou — Graph

°F

Shantou temperature yesterday

Maximum temperature yesterday: 93 °F (at 4:00 PM)
Minimum temperature yesterday: 79 °F (at 3:00 AM)
Average temperature yesterday: 83 °F

Past Weeks' High & Low Weather Summary

 TemperatureHumidityPressure
High97 °F (Jun 29, 3:00 PM)100% (Jun 22, 8:00 PM)29.86 "Hg (Jun 22, 8:00 PM)
Low79 °F (Jun 23, 2:00 AM)47% (Jun 29, 3:00 PM)29.53 "Hg (Jul 1, 4:00 PM)
Average85 °F83%29.69 "Hg
* Reported Jun 21 4:00 AM — Jul 6 4:00 AM, Shantou, Weather by CustomWeather, © 2015

Note: Actual official high and low records may vary slightly from our data, if they occured in-between our weather recording intervals... More about our weather records

Advertising

Shantou weather history for previous 24 hours

 ConditionsComfort  
Time TempWeatherWind HumidityBarometerVisibility
4:00 AM
Mon, Jul 6
79 °FPassing clouds.1 mph89%29.56 "HgN/A
3:00 AM79 °FFog.1 mph94%29.56 "Hg3 mi
2:00 AM81 °FPassing clouds.1 mph89%29.59 "Hg4 mi
1:00 AM81 °FPassing clouds.1 mph84%29.62 "HgN/A
12:00 AM82 °FPassing clouds.1 mph79%29.62 "HgN/A
11:00 PM
Sun, Jul 5
82 °FPassing clouds.3 mph79%29.62 "Hg5 mi
10:00 PM82 °FPassing clouds.3 mph79%29.62 "Hg5 mi
9:00 PM82 °FPassing clouds.3 mph79%29.62 "Hg5 mi
8:00 PM82 °FPartly cloudy.10 mph79%29.59 "Hg4 mi
7:00 PM86 °FBroken clouds.3 mph75%29.59 "Hg2 mi
6:00 PM88 °FPartly sunny.8 mph70%29.56 "Hg3 mi
5:00 PM91 °FScattered clouds.3 mph63%29.56 "Hg5 mi
4:00 PM93 °FScattered clouds.1 mph59%29.56 "HgN/A
3:00 PM91 °FScattered clouds.1 mph63%29.56 "Hg6 mi
2:00 PM90 °FScattered clouds.3 mph67%29.59 "Hg4 mi
1:00 PM88 °FScattered clouds.1 mph70%29.62 "Hg3 mi
12:00 PM84 °FBroken clouds.3 mph79%29.65 "Hg2 mi
11:00 AM82 °FBroken clouds.3 mph79%29.65 "Hg1 mi
10:00 AM81 °FBroken clouds.No wind84%29.68 "Hg4 mi
9:00 AM79 °FBroken clouds.6 mph89%29.68 "Hg5 mi
8:00 AM79 °FBroken clouds.8 mph89%29.68 "Hg5 mi
7:00 AM79 °FBroken clouds.6 mph89%29.68 "Hg5 mi
6:00 AM79 °FBroken clouds.8 mph89%29.65 "Hg4 mi
Weather by CustomWeather, © 2015

See weather overviewHow to use our weather pages